Weather observations for the past three days for
George M Bryan Airport, Starkville
Imperial (Metric)
Date Time (cdt) Wind (mph) Vis. (mi.) Weather Sky Cond. Temperature (ºF) Relative Humidity Wind Chill (°F) Heat Index (°F) Pressure Precipitation (in)
Air Dwpt 6 hour altimeter (in) sea level (mb) 1 hr 3 hr 6 hr
Max. Min.
09 06:15 Calm 9.00 Overcast OVC005 60.8 60.8 100% 29.85 0.0
09 05:55 Calm 9.00 Thunderstorm in Vicinity OVC005 60.8 60.8 100% 29.84 0.0
09 05:35 Calm 9.00 Thunderstorm in Vicinity OVC005 60.8 60.8 100% 29.84 0.0
09 05:15 S 3 8.00 Overcast OVC008 60.8 60.8 100% 29.83 0.0
09 04:55 S 3 7.00 Overcast OVC009 60.8 60.8 100% 29.84 0.0
09 04:35 Calm 9.00 Overcast OVC010 60.8 60.8 100% 29.83 0.0
09 04:15 Calm 7.00 Thunderstorm in Vicinity BKN011 BKN017 60.8 60.8 100% 29.82 0.0
09 03:55 S 5 8.00 A Few Clouds FEW010 60.8 60.8 100% 29.83 0.0
09 03:35 Calm 8.00 Thunderstorm in Vicinity FEW003 BKN011 BKN025 60.8 60.8 100% 29.84 0.0
09 03:15 Calm 10.00 Overcast OVC012 60.8 60.8 100% 29.84 0.0
09 02:55 Calm 9.00 Thunderstorm in Vicinity FEW004 BKN014 BKN019 60.8 60.8 100% 29.85 0.0
09 02:35 Calm 9.00 Partly Cloudy SCT003 60.8 60.8 100% 29.85 0.0
09 00:55 Calm 10.00 Thunderstorm in Vicinity OVC006 60.8 60.8 100% 29.91 0.0
09 00:35 S 5 10.00 Overcast OVC007 60.8 60.8 100% 29.88 0.0
09 00:15 S 3 10.00 Overcast OVC009 60.8 60.8 100% 29.87 0.0
08 23:55 Calm 10.00 Overcast OVC011 60.8 60.8 100% 29.87 0.0
08 23:35 S 5 10.00 Overcast OVC011 60.8 60.8 100% 29.87 0.0
08 23:15 Calm 10.00 Overcast OVC013 60.8 60.8 100% 29.87 0.0
08 22:55 Calm 10.00 Overcast OVC014 60.8 60.8 100% 29.87 0.0
08 22:35 S 5 10.00 Overcast OVC014 60.8 60.8 100% 29.87 0.0
08 22:15 S 3 10.00 Mostly Cloudy BKN015 59 59 100% 29.87 0.0
08 21:55 S 3 10.00 Mostly Cloudy BKN019 60.8 60.8 100% 29.86 0.0
08 21:15 Calm 10.00 Overcast BKN022 BKN026 OVC035 60.8 60.8 100% 29.87 0.0
08 20:55 S 3 10.00 Overcast BKN028 OVC035 60.8 60.8 100% 29.88 0.0
08 20:35 SE 3 10.00 Overcast OVC028 62.6 62.6 100% 29.88 0.0
08 20:15 Calm 10.00 Overcast OVC032 62.6 62.6 100% 29.88 0.0
08 19:55 Calm 10.00 Mostly Cloudy BKN035 BKN110 62.6 62.6 100% 29.88 0.0
08 19:35 SE 6 10.00 A Few Clouds FEW110 62.6 62.6 100% 29.87 0.0
08 19:15 SE 5 10.00 A Few Clouds FEW120 64.4 64.4 100% 29.87 0.0
08 18:55 S 6 10.00 Fair CLR 64.4 64.4 100% 29.88 0.0
08 18:35 S 7 10.00 Fair CLR 64.4 62.6 94% 29.88 0.0
08 18:15 SE 8 10.00 Fair CLR 64.4 62.6 94% 29.87 0.0
08 17:55 S 10 10.00 A Few Clouds FEW120 66.2 62.6 88% 29.88 0.0
08 17:35 S 10 G 17 10.00 Fair CLR 66.2 60.8 83% 29.88 0.0
08 17:15 S 12 10.00 Fair CLR 66.2 60.8 83% 29.89 0.0
08 16:55 SE 9 10.00 A Few Clouds FEW120 66.2 59 78% 29.91 0.0
08 16:35 SE 8 10.00 Fair CLR 68 59 73% 29.91 0.0
08 16:15 S 9 10.00 Fair CLR 68 60.8 78% 29.91 0.0
08 15:55 S 9 10.00 Fair CLR 66.2 59 78% 29.92 0.0
08 15:35 S 9 G 15 10.00 Fair CLR 66.2 57.2 73% 29.94 0.0
08 15:15 S 10 10.00 Fair CLR 68 57.2 69% 29.93 0.0
08 14:55 S 9 9.00 Light Rain CLR 68 55.4 64% 29.93 0.0
08 14:15 SE 8 10.00 Fair CLR 68 55.4 64% 29.93 0.0
08 13:55 S 12 10.00 Fair CLR 68 55.4 64% 29.95 0.0
08 13:35 SE 9 10.00 A Few Clouds FEW110 68 53.6 60% 29.95 0.0
08 13:15 SE 8 10.00 Fair CLR 68 55.4 64% 29.95 0.0
08 12:55 SE 8 10.00 Fair CLR 68 53.6 60% 29.98 0.0
08 12:35 SE 7 10.00 Fair CLR 66.2 53.6 64% 29.97 0.0
08 12:15 SE 9 10.00 Fair CLR 66.2 51.8 60% 29.99 0.0
08 11:55 E 6 10.00 Fair CLR 66.2 53.6 64% 29.97 0.0
08 11:35 SE 6 10.00 Fair CLR 66.2 51.8 60% 29.99 0.0
08 11:15 SE 8 10.00 Fair CLR 66.2 51.8 60% 30 0.0
08 10:55 E 5 10.00 Fair CLR 66.2 53.6 64% 30.01 0.0
08 10:35 SE 8 10.00 Fair CLR 66.2 53.6 64% 30.02 0.0
08 10:15 Vrbl 7 G 13 10.00 Fair CLR 66.2 53.6 64% 30.02 0.0
08 09:55 E 9 10.00 Fair CLR 66.2 51.8 60% 30.03 0.0
08 09:35 E 7 10.00 Fair CLR 64.4 55.4 73% 30.03 0.0
08 08:55 Vrbl 6 10.00 Fair CLR 62.6 55.4 77% 30.03 0.0
08 08:35 SE 6 10.00 Fair CLR 60.8 55.4 83% 30.03 0.0
08 08:15 E 5 10.00 Fair CLR 59 57.2 94% 30.04 0.0
08 07:55 Vrbl 6 10.00 Fair CLR 57.2 57.2 100% 30.03 0.0
08 07:35 Calm 10.00 Fair CLR 55.4 55.4 100% 30.03 0.0
08 07:15 N 3 10.00 Fair CLR 53.6 53.6 100% 30.03 0.0
08 06:55 Calm 10.00 Fair CLR 53.6 53.6 100% 30.04 0.0
08 06:35 Calm 10.00 Fair CLR 51.8 51.8 100% 30.03 0.0
08 06:15 Calm 9.00 Fair CLR 51.8 51.8 100% 30.01 0.0
08 05:55 Calm 9.00 Fair CLR 51.8 51.8 100% 30 0.0
08 05:35 Calm 9.00 Fair CLR 51.8 51.8 100% 30 0.0
08 04:55 Calm 9.00 Partly Cloudy SCT039 51.8 51.8 100% 29.99 0.0
08 03:55 Calm 10.00 Fair CLR 53.6 53.6 100% 29.98 0.0
08 03:35 Calm 10.00 Fair CLR 53.6 53.6 100% 29.97 0.0
08 03:15 Calm 10.00 Fair CLR 53.6 53.6 100% 29.97 0.0
08 02:55 Calm 10.00 Fair CLR 53.6 53.6 100% 29.96 0.0
08 02:35 Calm 10.00 Fair CLR 53.6 53.6 100% 29.96 0.0
08 02:15 Calm 10.00 Fair CLR 53.6 53.6 100% 29.97 0.0
08 01:55 Calm 10.00 Fair CLR 53.6 53.6 100% 29.97 0.0
08 01:35 Calm 10.00 Fair CLR 53.6 53.6 100% 29.98 0.0
08 01:15 Calm 10.00 Fair CLR 55.4 55.4 100% 29.99 0.0
08 00:55 Calm 10.00 Fair CLR 55.4 55.4 100% 29.99 0.0
08 00:35 Calm 10.00 Fair CLR 55.4 55.4 100% 29.99 0.0
08 00:15 Calm 10.00 Fair CLR 55.4 55.4 100% 29.99 0.0
07 23:55 Calm 10.00 Fair CLR 55.4 55.4 100% 29.99 0.0
07 23:35 Calm 10.00 Fair CLR 55.4 55.4 100% 30 0.0
07 23:15 Calm 10.00 Fair CLR 57.2 57.2 100% 29.99 0.0
07 22:55 Calm 10.00 Fair CLR 57.2 57.2 100% 30 0.0
07 22:35 Calm 10.00 Fair CLR 57.2 57.2 100% 30 0.0
07 22:15 Calm 10.00 Fair CLR 59 59 100% 30 0.0
07 21:55 Calm 10.00 Fair CLR 59 59 100% 29.99 0.0
07 21:35 Calm 10.00 A Few Clouds FEW039 59 59 100% 29.99 0.0
07 21:15 Calm 10.00 Partly Cloudy SCT039 59 59 100% 29.98 0.0
07 20:55 Calm 10.00 Mostly Cloudy BKN039 59 59 100% 29.98 0.0
07 20:35 Calm 10.00 Partly Cloudy SCT041 62.6 57.2 83% 29.97 0.0
07 20:15 Vrbl 3 10.00 Fair CLR 62.6 55.4 77% 29.97 0.0
07 19:55 Vrbl 3 10.00 Fair CLR 64.4 55.4 73% 29.97 0.0
07 19:35 N 5 10.00 Fair CLR 64.4 55.4 73% 29.97 0.0
07 19:15 N 3 10.00 Fair CLR 66.2 57.2 73% 29.96 0.0
07 18:55 Calm 9.00 Fair CLR 66.2 55.4 68% 29.96 0.0
07 18:35 Calm 10.00 Fair CLR 68 53.6 60% 29.96 0.0
07 18:15 Vrbl 3 10.00 Fair CLR 69.8 51.8 53% 29.96 0.0
07 17:55 Vrbl 5 10.00 Fair CLR 69.8 51.8 53% 29.96 0.0
07 17:35 Calm 10.00 Fair CLR 69.8 53.6 57% 29.95 0.0
07 17:15 Vrbl 6 10.00 A Few Clouds FEW043 69.8 55.4 60% 29.95 0.0
07 16:55 NE 3 10.00 A Few Clouds FEW043 69.8 55.4 60% 29.95 0.0
07 16:35 Vrbl 6 10.00 Fair CLR 69.8 55.4 60% 29.95 0.0
07 16:15 N 8 10.00 Fair CLR 69.8 53.6 57% 29.94 0.0
07 15:15 NW 8 10.00 Fair CLR 69.8 55.4 60% 29.96 0.0
07 14:55 N 12 10.00 Fair CLR 69.8 55.4 60% 29.95 0.0
07 14:35 Vrbl 6 10.00 Fair CLR 69.8 55.4 60% 29.97 0.0
07 14:15 N 8 10.00 Fair CLR 69.8 55.4 60% 29.97 0.0
07 13:55 Vrbl 7 10.00 Fair CLR 69.8 53.6 57% 29.97 0.0
07 13:35 NE 6 G 15 10.00 Fair CLR 68 55.4 64% 29.98 0.0
07 13:15 Calm 10.00 Fair CLR 68 55.4 64% 29.98 0.0
07 12:55 N 10 10.00 Fair CLR 68 55.4 64% 29.98 0.0
07 12:35 N 9 10.00 Fair CLR 68 57.2 69% 29.99 0.0
07 12:15 NE 8 10.00 A Few Clouds FEW032 66.2 57.2 73% 29.99 0.0
07 11:55 NE 13 10.00 Partly Cloudy SCT030 66.2 57.2 73% 29.99 0.0
07 11:35 Vrbl 7 G 15 10.00 Partly Cloudy SCT028 64.4 57.2 78% 30 0.0
07 11:15 N 7 G 14 10.00 Mostly Cloudy BKN025 64.4 57.2 78% 30.01 0.0
07 10:55 N 7 G 15 10.00 Mostly Cloudy BKN024 64.4 59 83% 30.01 0.0
07 10:35 Vrbl 7 G 15 10.00 Mostly Cloudy BKN021 62.6 57.2 83% 30.01 0.0
07 10:15 N 9 10.00 Mostly Cloudy BKN017 62.6 60.8 94% 29.99 0.0
07 09:55 N 9 10.00 Overcast OVC016 59 59 100% 30 0.0
07 09:35 N 8 10.00 Mostly Cloudy SCT015 BKN027 59 59 100% 29.99 0.0
07 09:15 NE 9 G 16 10.00 Overcast BKN014 OVC027 59 59 100% 29.98 0.0
07 08:55 N 7 G 13 10.00 Overcast OVC014 57.2 57.2 100% 29.99 0.0
07 08:35 Vrbl 6 G 13 10.00 Overcast OVC013 55.4 55.4 100% 30 0.0
07 08:15 N 7 G 14 10.00 Overcast OVC009 55.4 55.4 100% 29.99 0.0
07 07:55 Vrbl 6 10.00 Overcast OVC008 55.4 55.4 100% 29.96 0.0
07 07:35 Calm 10.00 Overcast OVC007 55.4 55.4 100% 29.96 0.0
07 07:15 N 6 G 14 10.00 Overcast OVC007 55.4 55.4 100% 29.96 0.0
07 06:55 Vrbl 3 G 12 10.00 Overcast OVC007 55.4 55.4 100% 29.95 0.0
07 06:35 Calm 10.00 Overcast OVC008 55.4 55.4 100% 29.93 0.0
07 06:15 Vrbl 5 10.00 Overcast OVC008 55.4 55.4 100% 29.92 0.0
07 05:55 Vrbl 3 10.00 Overcast OVC007 55.4 55.4 100% 29.94 0.0
07 05:35 Vrbl 6 10.00 Overcast OVC006 55.4 55.4 100% 29.92 0.0
07 05:15 Vrbl 7 8.00 Overcast OVC007 55.4 55.4 100% 29.91 0.0
07 04:55 N 6 6.00 Light Rain Fog/Mist OVC007 55.4 55.4 100% 29.9 0.0
07 04:35 Vrbl 5 8.00 Overcast OVC007 55.4 55.4 100% 29.9 0.0
07 04:15 Calm 8.00 Overcast OVC007 55.4 55.4 100% 29.91 0.0
07 03:55 Vrbl 5 8.00 Overcast BKN006 OVC010 55.4 55.4 100% 29.92 0.0
07 03:35 N 5 7.00 Overcast OVC004 55.4 55.4 100% 29.9 0.0
07 03:15 N 8 G 14 7.00 Overcast OVC004 55.4 55.4 100% 29.89 0.0
07 02:55 Vrbl 7 8.00 Overcast OVC004 55.4 55.4 100% 29.89 0.0
07 02:35 Vrbl 6 G 12 9.00 Overcast OVC004 55.4 55.4 100% 29.9 0.0
07 02:15 Vrbl 6 9.00 Overcast OVC004 57.2 57.2 100% 29.91 0.0
07 01:55 N 8 G 14 10.00 Overcast OVC004 57.2 57.2 100% 29.9 0.0
07 01:35 Vrbl 6 10.00 Light Rain OVC004 57.2 57.2 100% 29.9 0.0
07 01:15 N 8 10.00 Unknown Precip OVC004 57.2 57.2 100% 29.9 0.0
07 00:55 Vrbl 6 G 13 10.00 Thunderstorm in Vicinity OVC005 57.2 57.2 100% 29.9 0.0
07 00:35 N 8 5.00 Thunderstorm Light Rain Fog/Mist OVC006 57.2 57.2 100% 29.89 0.0
07 00:15 NW 7 G 14 7.00 Thunderstorm Light Rain BKN007 OVC010 57.2 57.2 100% 29.93 0.0
06 23:55 N 9 10.00 Thunderstorm in Vicinity BKN008 OVC011 59 59 100% 29.89 0.0
06 23:35 N 5 10.00 Overcast OVC007 59 59 100% 29.9 0.0
06 23:15 N 8 9.00 Light Rain BKN006 OVC010 59 59 100% 29.89 0.0
06 22:55 Vrbl 7 G 15 10.00 Overcast OVC009 59 59 100% 29.91 0.0
06 22:35 N 6 10.00 Overcast BKN010 BKN048 OVC075 59 59 100% 29.91 0.0
06 22:15 N 8 10.00 Overcast BKN011 BKN048 OVC070 60.8 60.8 100% 29.89 0.0
06 21:35 Vrbl 5 10.00 Overcast OVC008 60.8 60.8 100% 29.91 0.0
06 21:15 Calm 10.00 Overcast BKN009 BKN032 OVC080 60.8 60.8 100% 29.9 0.0
06 20:55 N 5 4.00 Light Rain Fog/Mist BKN009 BKN034 OVC085 60.8 60.8 100% 29.88 0.0
06 20:35 Vrbl 6 10.00 Overcast BKN009 BKN038 OVC047 60.8 60.8 100% 29.86 0.0
06 20:15 N 8 10.00 Thunderstorm in Vicinity SCT009 BKN031 OVC055 60.8 60.8 100% 29.84 0.0
06 19:55 Vrbl 5 10.00 Overcast BKN027 OVC055 60.8 60.8 100% 29.85 0.0
06 19:35 Vrbl 6 10.00 Overcast OVC024 60.8 60.8 100% 29.85 0.0
06 19:15 NE 5 10.00 Overcast OVC020 60.8 60.8 100% 29.86 0.0
06 18:55 NE 8 10.00 Overcast SCT008 SCT012 OVC018 60.8 60.8 100% 29.87 0.0
06 18:35 N 9 10.00 Overcast OVC007 60.8 60.8 100% 29.88 0.0
06 18:15 N 8 G 14 10.00 Overcast OVC007 62.6 62.6 100% 29.89 0.0
06 17:55 N 9 G 17 4.00 Thunderstorm in Vicinity Rain Fog/Mist OVC008 62.6 62.6 100% 29.86 0.0
06 17:35 N 12 G 20 0.75 Thunderstorm Light Rain Fog/Mist BKN004 OVC011 66.2 66.2 100% 29.85 0.0
06 17:15 N 12 G 22 4.00 Light Rain Fog/Mist OVC012 71.6 71.6 100% 29.84 0.0
06 16:55 N 8 G 15 8.00 Overcast SCT011 BKN020 OVC027 75.2 75.2 100% 73 29.82 0.0
06 16:35 Vrbl 3 10.00 Mostly Cloudy FEW020 SCT027 BKN033 78.8 78.8 100% 83 29.82 0.0
06 16:15 Vrbl 6 G 12 9.00 Mostly Cloudy SCT027 BKN034 BKN041 78.8 78.8 100% 83 29.82 0.0
06 15:55 Vrbl 5 10.00 Overcast BKN025 BKN034 OVC044 78.8 78.8 100% 83 29.82 0.0
06 15:35 NW 6 10.00 Overcast BKN026 BKN031 OVC037 78.8 77 94% 83 29.83 0.0
06 15:15 S 7 G 14 10.00 Partly Cloudy FEW027 SCT038 SCT044 80.6 77 89% 87 29.84 0.0
06 14:55 Vrbl 6 G 13 10.00 A Few Clouds FEW025 FEW042 FEW110 82.4 78.8 89% 92 29.85 0.0
06 14:35 SW 8 10.00 Mostly Cloudy SCT025 BKN031 BKN042 80.6 77 89% 87 29.86 0.0
06 14:15 SW 6 10.00 Mostly Cloudy BKN026 BKN031 78.8 77 94% 83 29.86 0.0
06 13:55 Vrbl 7 10.00 Mostly Cloudy FEW025 BKN030 BKN035 80.6 77 89% 87 29.86 0.0
06 13:35 SW 7 10.00 Mostly Cloudy FEW024 SCT030 BKN070 80.6 77 89% 87 29.87 0.0
06 13:15 SW 7 10.00 Mostly Cloudy SCT028 SCT044 BKN075 78.8 77 94% 83 29.87 0.0
06 12:55 S 6 G 12 10.00 Mostly Cloudy SCT025 BKN031 BKN045 78.8 77 94% 83 29.88 0.0
06 12:35 SW 7 10.00 Overcast BKN024 BKN030 OVC034 78.8 77 94% 83 29.88 0.0
06 12:15 SW 7 10.00 Mostly Cloudy BKN022 BKN026 78.8 77 94% 83 29.88 0.0
06 11:55 S 12 10.00 Mostly Cloudy FEW021 SCT028 BKN085 78.8 77 94% 83 29.88 0.0
06 11:35 SW 7 10.00 Overcast SCT021 BKN028 OVC080 77 77 100% 78 29.89 0.0
06 11:15 S 9 10.00 Overcast OVC020 77 77 100% 78 29.89 0.0
06 10:55 S 8 G 15 10.00 Overcast OVC021 75.2 75.2 100% 73 29.89 0.0
06 10:35 S 8 10.00 Overcast BKN021 OVC025 77 77 100% 78 29.89 0.0
06 10:15 SW 7 G 13 10.00 Overcast OVC022 75.2 75.2 100% 73 29.89 0.0
06 09:55 Vrbl 6 G 15 10.00 Overcast OVC021 77 75.2 94% 78 29.89 0.0
06 09:35 SW 9 G 15 10.00 Overcast OVC020 75.2 75.2 100% 73 29.88 0.0
06 09:15 SW 8 10.00 Mostly Cloudy BKN019 BKN024 BKN080 75.2 75.2 100% 73 29.87 0.0
06 08:55 Vrbl 6 G 13 10.00 Overcast BKN018 OVC080 73.4 73.4 100% 29.88 0.0
06 08:35 Vrbl 7 G 14 10.00 Mostly Cloudy SCT017 BKN075 73.4 73.4 100% 29.88 0.0
06 08:15 SW 8 G 14 10.00 Overcast FEW019 OVC075 71.6 71.6 100% 29.88 0.0
06 07:55 S 8 10.00 Overcast OVC080 71.6 71.6 100% 29.88 0.0
06 07:35 S 10 10.00 Overcast FEW024 FEW070 OVC080 71.6 71.6 100% 29.87 0.0
06 07:15 S 8 10.00 Overcast FEW017 BKN025 OVC070 71.6 71.6 100% 29.87 0.0
06 06:55 S 8 G 15 10.00 Overcast SCT017 BKN033 OVC065 71.6 71.6 100% 29.87 0.0
Date Time (cdt) Wind (mph) Vis. (mi.) Weather Sky Cond. Air Dwpt Max. Min. Relative Humidity Wind Chill (°F) Heat Index (°F) altimeter (in) sea level (mb) 1 hr 3 hr 6 hr
6 hour
Temperature (ºF) Pressure Precipitation (in)